Location: Bu�n Treun
(12.1333°N, 108.3167°E)
Time: 17:04:48
(UTC+00:00)

N. Korean satellite - Pass Details

Date: 22 June 2021
Orbit: 451 x 498 km, 97.2° (Epoch: 01 August)

Event Time Altitude Azimuth Distance (km) Brightness Sun altitude
Rises 20:59:36 0° 41° (NE) 2,568 11.6 -19.2°
Reaches altitude 10° 21:02:34 10° 68° (ENE) 1,691 10.5 -18.5°
Maximum altitude 21:04:24 13° 99° (E) 1,490 9.7 -18.1°
Drops below altitude 10° 21:06:15 10° 129° (SE) 1,694 9.6 -17.8°
Sets 21:09:13 0° 156° (SSE) 2,576 10.2 -17.1°
